CAPE
182 89 79 9 26 85 125 285 368 226 44 19 9 0 0 0 0 0 0 0 0 0 0 0 0 0 0 0 0 0 0 0
196 173 108 123 155 166 282 335 275 98 33 50 44 0 0 0 0 0 0 0 0 0 0 0 0 0 0 0 0 0 0 0
350 249 136 168 220 259 370 416 246 162 108 65 15 0 0 0 0 0 0 0 0 0 0 0 0 0 0 0 0 0 0 0
643 291 232 235 297 421 474 455 242 165 73 1 0 0 0 0 0 0 0 0 0 0 0 0 0 0 0 0 0 0 0 0
612 577 382 302 393 481 516 451 289 207 43 21 0 0 0 0 0 0 0 0 0 0 0 0 0 0 0 0 0 0 0 0
389 628 637 525 470 545 532 417 219 127 1 4 5 0 0 0 0 0 0 0 0 0 0 0 0 0 0 0 0 0 0 0
121 327 559 707 569 509 501 276 219 43 11 7 1 0 0 0 0 0 0 0 0 0 0 0 0 0 0 0 0 0 0 0
89 53 167 554 422 411 409 208 110 0 1 8 0 0 0 0 0 0 0 0 0 0 0 0 0 0 0 0 0 0 0 0
111 66 135 292 393 397 448 375 144 0 0 6 2 0 0 0 0 0 0 0 0 0 0 0 0 0 0 0 0 0 0 0
0 7 74 131 369 396 604 558 305 108 7 10 2 0 0 0 0 0 0 0 0 0 0 0 0 0 0 0 0 0 0 0
0 0 174 201 323 375 468 541 432 340 21 4 1 0 0 0 0 0 0 0 0 0 0 0 0 0 0 0 0 0 0 0
0 28 320 421 428 406 431 450 393 68 6 1 0 0 0 0 0 0 0 0 0 0 0 0 0 0 0 0 0 0 0 0
58 182 341 416 433 294 238 92 26 0 0 0 0 0 0 0 0 0 0 0 0 0 0 0 0 0 0 0 0 0 0 0
38 100 179 180 40 0 0 0 0 0 0 0 0 0 0 0 0 0 0 0 0 0 0 0 0 0 0 0 0 0 0 0
24 17 0 0 0 0 0 0 0 0 0 0 0 0 0 0 0 0 0 0 0 0 0 0 0 0 0 0 0 0 0 0
0 0 0 0 0 0 0 0 0 0 0 0 0 0 0 0 0 0 0 0 0 0 0 0 0 0 0 0 0 0 0 0
0 0 0 0 0 0 0 0 0 0 0 0 0 0 0 0 0 0 0 0 0 0 0 0 0 0 0 0 0 0 0 0
0 0 0 0 0 0 0 0 0 0 0 0 0 0 0 0 0 0 0 0 0 0 0 0 0 0 0 0 0 0 0 0
0 0 0 0 0 0 0 0 0 0 0 0 0 0 0 0 0 0 0 0 0 0 4 0 0 0 0 0 0 0 0 0
CIN
-92 -133 -123 -133 -139 -115 -86 -28 -20 -68 -171 -201 -102 -0 -0 -0 -0 -0 -0 -0 -0 -0 -0 -0 -0 -0 -0 -0 -0 -0 -0 -0
-118 -135 -168 -149 -139 -102 -60 -43 -65 -139 -219 -190 -193 -0 -0 -0 -0 -0 -0 -0 -0 -0 -0 -0 -0 -0 -0 -0 -0 -0 -0 -0
-148 -178 -227 -186 -145 -112 -65 -52 -118 -128 -152 -188 -153 -0 -0 -0 -0 -0 -0 -0 -0 -0 -0 -0 -0 -0 -0 -0 -0 -0 -0 -0
-132 -234 -262 -244 -203 -143 -91 -70 -125 -137 -185 -194 -0 -0 -0 -0 -0 -0 -0 -0 -0 -0 -0 -0 -0 -0 -0 -0 -0 -0 -0 -0
-120 -162 -224 -275 -233 -151 -117 -136 -188 -186 -246 -254 -0 -0 -0 -0 -0 -0 -0 -0 -0 -0 -0 -0 -0 -0 -0 -0 -0 -0 -0 -0
-208 -185 -182 -210 -214 -191 -160 -157 -183 -190 -0 -245 -153 -0 -0 -0 -0 -0 -0 -0 -0 -0 -0 -0 -0 -0 -0 -0 -0 -0 -0 -0
-316 -256 -198 -183 -239 -231 -189 -218 -183 -249 -272 -182 -0 -0 -0 -0 -0 -0 -0 -0 -0 -0 -0 -0 -0 -0 -0 -0 -0 -0 -0 -0
-305 -371 -377 -285 -340 -292 -223 -245 -200 -0 -129 -212 -0 -0 -0 -0 -0 -0 -0 -0 -0 -0 -0 -0 -0 -0 -0 -0 -0 -0 -0 -0
-324 -333 -338 -369 -395 -333 -253 -224 -197 -16 -0 -183 -0 -0 -0 -0 -0 -0 -0 -0 -0 -0 -0 -0 -0 -0 -0 -0 -0 -0 -0 -0
-0 -428 -399 -399 -399 -401 -320 -238 -166 -220 -302 -145 -0 -0 -0 -0 -0 -0 -0 -0 -0 -0 -0 -0 -0 -0 -0 -0 -0 -0 -0 -0
-0 -232 -481 -439 -398 -359 -293 -240 -222 -209 -238 -0 -0 -0 -0 -0 -0 -0 -0 -0 -0 -0 -0 -0 -0 -0 -0 -0 -0 -0 -0 -0
-0 -581 -480 -405 -363 -330 -292 -250 -246 -315 -203 -0 -0 -0 -0 -0 -0 -0 -0 -0 -0 -0 -0 -0 -0 -0 -0 -0 -0 -0 -0 -0
-499 -505 -471 -431 -374 -385 -383 -401 -422 -0 -0 -0 -0 -0 -0 -0 -0 -0 -0 -0 -0 -0 -0 -0 -0 -0 -0 -0 -0 -0 -0 -0
-520 -530 -486 -475 -541 -0 -0 -0 -0 -0 -0 -0 -0 -0 -0 -0 -0 -0 -0 -0 -0 -0 -0 -0 -0 -0 -0 -0 -0 -0 -0 -0
-379 -565 -21 -0 -0 -0 -0 -0 -0 -0 -0 -0 -0 -0 -0 -0 -0 -0 -0 -0 -0 -0 -0 -0 -0 -0 -0 -0 -0 -0 -0 -0
-0 -0 -0 -0 -0 -0 -0 -0 -0 -0 -0 -0 -0 -0 -0 -0 -0 -0 -0 -0 -0 -0 -0 -0 -0 -0 -0 -0 -0 -0 -0 -0
-0 -0 -0 -0 -0 -0 -0 -0 -0 -0 -0 -0 -0 -0 -0 -0 -0 -0 -0 -0 -0 -0 -0 -0 -0 -0 -0 -0 -0 -0 -0 -0
-0 -0 -0 -0 -0 -0 -0 -0 -0 -0 -0 -0 -0 -0 -0 -0 -0 -0 -0 -0 -0 -0 -0 -10 -0 -0 -0 -0 -0 -0 -0 -0
-0 -0 -0 -0 -0 -0 -0 -0 -0 -0 -0 -0 -0 -0 -0 -0 -0 -0 -0 -0 -0 -0 -1 -2 -0 -0 -0 -0 -0 -0 -0 -0
Wind_Speed
14 14 15 16 15 14 13 11 10 9 7 5 5 4 3 4 5 6 9 8 9 9 7 8 6 6 5 4 5 4 2 0
13 15 16 17 15 15 15 13 12 10 7 7 6 5 5 4 5 8 9 9 10 10 8 7 6 5 5 5 4 3 2 1
13 16 17 18 18 17 16 15 13 12 10 8 4 6 5 5 5 7 9 11 11 9 10 8 7 6 6 5 5 4 2 1
13 16 19 18 19 19 15 14 13 13 12 8 4 6 4 4 7 7 8 10 10 11 10 9 8 6 5 5 6 7 3 2
15 16 17 18 16 13 14 15 15 13 14 13 13 11 10 6 7 7 8 9 10 11 10 10 8 6 7 4 2 2 5 4
19 18 18 18 15 15 15 14 14 14 13 13 10 10 5 6 7 10 8 8 10 10 10 11 10 7 7 9 7 4 3 3
18 17 16 15 13 14 14 13 14 12 12 14 15 14 12 11 10 9 8 8 8 11 10 9 10 9 10 8 6 7 6 4
17 17 17 16 18 17 14 14 11 6 12 13 15 15 15 16 14 10 10 9 9 12 12 10 8 7 7 7 8 7 6 4
19 20 17 18 18 19 19 19 16 20 17 16 13 14 9 8 11 10 10 11 10 11 9 8 9 9 7 8 5 5 6 5
18 16 16 15 16 20 21 21 18 15 16 13 14 13 13 11 14 13 10 12 10 13 11 8 11 10 9 8 6 7 6 6
10 12 12 11 14 15 16 17 19 19 16 14 13 15 14 13 12 15 14 12 14 14 11 11 11 8 10 8 7 6 6 5
7 8 9 11 11 13 15 16 16 14 14 14 13 13 14 12 12 12 14 14 15 15 11 12 10 9 8 6 4 4 7 7
6 6 7 8 9 10 11 11 13 12 11 12 12 11 12 13 13 14 15 15 13 11 10 8 5 3 5 6 5 6 9 10
5 5 5 5 6 7 9 9 9 8 7 9 9 9 11 12 12 14 14 14 12 8 9 8 10 9 7 4 5 10 10 11
4 3 3 4 5 7 7 5 4 6 6 7 8 9 9 10 10 10 12 13 10 11 10 9 8 6 5 2 8 11 11 10
1 2 3 5 5 5 5 8 9 8 8 8 7 7 7 8 8 6 5 6 5 4 10 7 6 4 2 5 10 12 12 12
8 6 4 3 2 1 2 3 4 5 6 5 5 7 7 7 6 6 6 6 5 8 5 5 2 1 5 11 10 10 10 11
11 10 9 8 7 5 5 4 5 5 5 5 7 8 8 7 7 9 8 8 10 6 5 5 2 6 10 11 9 9 10 11
9 8 9 9 10 11 10 10 10 9 9 8 8 9 11 11 11 11 8 7 5 5 2 3 6 9 8 12 11 12 11 12
Wind_Direction
195 193 191 196 199 201 199 201 193 184 172 158 159 148 143 157 174 173 162 149 140 132 126 130 122 112 117 112 86 67 36 51
199 198 198 201 205 208 206 196 189 177 172 174 176 171 164 185 178 170 153 145 146 142 130 130 128 134 120 111 111 142 131 122
201 196 198 204 207 209 207 204 185 189 186 177 177 168 182 171 159 160 159 152 149 142 142 140 139 126 124 144 172 165 153 120
210 199 201 202 208 205 202 200 195 195 187 163 127 115 107 162 170 154 154 149 152 150 150 140 137 139 146 164 180 175 184 175
226 215 207 208 208 197 199 199 196 194 186 186 181 190 182 179 172 157 154 155 156 154 147 144 141 146 154 146 207 232 178 168
218 218 218 213 198 193 194 192 194 194 196 198 194 187 169 145 148 149 159 161 158 153 156 154 155 151 153 157 164 182 171 183
218 215 212 213 197 191 191 185 193 191 201 202 199 187 160 159 158 161 169 166 166 169 166 165 157 153 159 173 166 181 167 152
223 208 201 195 188 189 187 181 178 178 206 205 204 184 171 172 172 168 165 178 186 184 173 168 159 160 164 164 181 171 153 171
226 222 209 197 186 182 187 186 179 173 210 207 200 187 180 185 176 173 185 190 181 169 172 166 162 164 169 192 176 169 168 183
229 227 214 201 185 186 189 193 193 198 202 197 191 192 192 190 188 193 183 184 175 173 174 171 171 180 183 176 180 182 183 194
233 231 221 200 188 191 192 198 200 203 201 196 200 200 197 193 187 193 187 181 177 176 178 180 179 180 183 177 189 176 192 204
228 219 211 199 190 190 190 199 202 199 201 201 200 201 195 190 190 185 186 179 181 181 178 183 180 187 178 189 209 182 211 221
246 212 196 187 191 186 191 195 199 205 201 194 204 194 186 189 192 188 190 185 182 178 182 187 177 161 180 189 205 212 216 221
224 221 217 197 189 189 179 194 194 198 195 203 198 196 196 199 197 198 191 180 179 177 173 172 168 180 189 184 222 237 226 231
203 181 178 170 178 195 187 188 172 168 192 203 200 198 201 206 198 185 178 178 170 178 184 180 178 166 171 193 270 256 247 244
77 169 166 161 190 189 173 161 169 173 179 186 200 180 177 170 158 143 148 162 159 161 163 150 133 135 132 260 266 261 256 252
75 76 81 93 162 215 122 121 150 176 187 187 157 157 152 127 117 118 114 105 110 133 101 74 83 62 304 272 271 279 269 257
73 69 61 52 48 49 68 96 127 132 124 121 119 126 118 106 107 104 101 104 111 99 92 43 304 303 265 277 287 291 278 269
75 75 75 60 62 65 72 73 75 80 82 89 100 108 106 106 105 100 95 106 98 87 178 257 261 261 289 285 290 291 279 270